Regional Weather Roundup
Issued by NWS State College, PA

Home | Current Version | Previous Version | Text Only | Print | Product List | Glossary On
Versions: 1 2 3 4 5 6 7 8 9 10 11 12 13 14 15 16 17 18 19 20 21 22 23 24 25 26 27 28 29 30 31 32 33 34 35 36 37 38 39 40 41 42 43 44 45 46 47 48 49 50
000
ASUS41 KCTP 010403
RWRCTP

REGIONAL WEATHER ROUNDUP
NATIONAL WEATHER SERVICE STATE COLLEGE PA
1200 AM EDT SAT AUG 01 2015

Note: "fair" indicates few or no clouds below 12,000 feet with no
significant weather and/or obstructions to visibility.

* = STATION THAT DOES NOT REPORT PRECIPITATION /E.G. RAIN...SNOW...ETC/
    THUNDER OR FOG.

PAZ002>004-007>009-013>016-020>023-029>032-010500-
WESTERN PENNSYLVANIA

CITY           SKY/WX    TMP DP  RH WIND       PRES   REMARKS
ERIE           MOCLDY    71  60  68 VRB7      29.84R
MEADVILLE      MOCLDY    68  60  75 SW5       29.89S
FRANKLIN*      CLOUDY    64  57  77 SW6       29.91F
NEW CASTLE     MOCLDY    73  61  66 SW3       29.91R
BEAVER COUNTY  NOT AVBL
BUTLER*        MOCLDY    72  57  60 W8        29.92S
PITTSBURGH INT PTCLDY    75  57  53 SW7       29.91S
PITTSBURGH     CLOUDY    74  57  55 SW9       29.91S
INDIANA*       PTCLDY    66  61  82 SW6       29.95S
LATROBE        NOT AVBL
WASHINGTON CO* NOT AVBL
$$

PAZ004>006-010>012-017>019-024>028-033>037-041-042-045-046-049>053-010500-
CENTRAL PENNSYLVANIA

CITY           SKY/WX    TMP DP  RH WIND       PRES   REMARKS
BRADFORD       MOCLDY    62  56  80 CALM      29.89F
DUBOIS         MOCLDY    68  57  68 SW6       29.89F
CLEARFIELD     CLEAR     67  59  75 SW6       29.90F
JOHNSTOWN      CLEAR     67  56  67 SW7       29.96S
ALTOONA        CLEAR     67  59  75 S6        29.94R
STATE COLLEGE  PTCLDY    67  60  76 SW3       29.89F
WILLIAMSPORT   CLEAR     68  62  81 CALM      29.84S
SELINSGROVE    MOCLDY    66  64  93 CALM      29.86S
FT INDIANTOWN  CLEAR     66  63  87 CALM      29.87S
CAPITAL CITY   CLEAR     72  61  68 SW5       29.86S
HARRISBURG     PTCLDY    76  60  57 N3        29.86R
YORK           PTCLDY    70  62  76 CALM      29.88S
$$

PAZ038>040-043-044-047-048-054-055-060>062-067>071-010500-
EASTERN PENNSYLVANIA

CITY           SKY/WX    TMP DP  RH WIND       PRES   REMARKS
SCRANTON       MOCLDY    70  60  70 S5        29.86S
MOUNT POCONO   CLEAR     67  58  72 W6        29.91F
ALLENTOWN      CLEAR     71  61  70 W3        29.85S
QUAKERTOWN*    CLEAR     66  63  88 CALM      29.88S
READING        CLEAR     72  62  71 CALM      29.85S
LANCASTER      CLEAR     73  63  70 CALM      29.87S
COATESVILLE    CLEAR     73  63  68 SW6       29.90S
POTTSTOWN      CLEAR     69  62  78 CALM      29.88S
BLUE BELL      NOT AVBL
DOYLESTOWN     CLEAR     69  60  73 CALM      29.86S
WILLOW GROVE   NOT AVBL
NORTH PHILA    CLEAR     77  58  51 SW5       29.87S
PHILADELPHIA   CLEAR     78  63  59 SW7       29.87S
$$


USA.gov is the U.S. government's official web portal to all federal, state and local government web resources and services.